EDT,Max TemperatureF,Mean TemperatureF,Min TemperatureF,Max Dew PointF,MeanDew PointF,Min DewpointF,Max Humidity, Mean Humidity, Min Humidity, Max Sea Level PressureIn, Mean Sea Level PressureIn, Min Sea Level PressureIn, Max VisibilityMiles, Mean VisibilityMiles, Min VisibilityMiles, Max Wind SpeedMPH, Mean Wind SpeedMPH, Max Gust SpeedMPH,PrecipitationIn, CloudCover, Events, WindDirDegrees
2013-3-1,62,55,48,46,38,32,87,55,34,30.04,29.99,29.94,10,10,7,16,8,21,0.00,2,,295
2013-3-2,55,47,39,37,34,32,87,54,41,30.08,30.04,29.99,10,10,8,21,9,28,0.00,2,,305
2013-3-3,51,44,35,37,31,27,87,61,44,30.19,30.08,30.02,10,10,5,21,7,24,0.00,3,,307
2013-3-4,64,48,32,36,29,21,100,54,21,30.27,30.19,30.14,10,10,5,12,2,16,0.00,0,,22
2013-3-5,75,55,35,57,44,34,100,67,31,30.20,30.14,30.07,10,10,8,15,4,20,0.00,0,,215
2013-3-6,64,56,48,63,41,27,100,59,24,30.17,30.07,29.98,10,10,7,22,12,30,0.00,2,Rain,278
2013-3-7,66,52,39,41,34,30,76,53,30,30.25,30.20,30.14,10,10,3,12,6,17,0.00,0,,335
2013-3-8,73,56,39,46,37,28,93,56,19,30.26,30.20,30.14,10,9,5,10,3,16,0.00,0,,9
2013-3-9,73,58,42,50,45,41,100,63,33,30.25,30.20,30.16,10,9,5,13,3,17,0.00,0,Thunderstorm,58
2013-3-10,77,65,53,55,52,48,100,68,41,30.19,30.14,30.08,10,9,7,20,8,28,0.00,1,,76
2013-3-11,77,65,53,59,55,54,100,73,44,30.13,30.03,29.94,10,8,4,18,7,25,0.00,3,,130
2013-3-12,69,62,55,68,60,52,100,86,68,30.06,29.96,29.91,10,8,1,16,10,22,0.11,3,Rain,211
2013-3-13,73,60,48,52,39,30,88,52,20,30.20,30.13,30.06,10,10,8,16,8,23,0.00,0,,324
2013-3-14,66,56,46,45,33,21,87,48,18,30.29,30.23,30.18,10,10,6,14,7,17,0.00,0,,356
2013-3-15,69,52,35,45,35,28,100,57,25,30.32,30.25,30.17,10,9,7,10,2,,0.00,0,,349
2013-3-16,77,57,37,50,41,36,100,59,22,30.22,30.16,30.08,10,9,5,13,3,,0.00,0,Rain,223
2013-3-17,75,58,42,55,50,43,100,71,41,30.17,30.10,30.03,10,8,0,12,2,22,0.00,2,Fog,177
2013-3-18,77,68,59,66,61,55,100,81,57,30.08,30.02,29.90,10,9,4,20,5,21,0.00,2,Rain-Thunderstorm,179
2013-3-19,82,71,60,66,61,57,100,69,42,30.03,29.97,29.92,10,7,0,12,2,,0.00,1,Fog,287
2013-3-20,73,66,60,66,61,54,100,81,50,29.99,29.93,29.83,10,9,5,17,6,21,0.00,2,Rain,291
2013-3-21,69,60,50,61,38,27,100,54,20,30.01,29.94,29.90,10,9,6,15,6,18,0.00,1,,311
2013-3-22,77,58,39,66,47,34,100,72,33,30.04,29.98,29.92,10,8,1,15,4,21,1.05,4,Rain-Thunderstorm,78
2013-3-23,86,73,60,72,67,64,100,71,48,30.02,29.91,29.81,10,7,0,22,7,29,0.05,4,Fog-Rain,177
2013-3-24,82,76,69,73,70,66,100,88,61,29.87,29.75,29.67,9,7,2,24,11,33,0.03,6,Thunderstorm,209
2013-3-25,69,61,53,66,43,21,100,53,16,30.06,29.90,29.77,10,8,5,18,11,25,0.00,1,,286
2013-3-26,57,52,46,43,30,23,67,45,29,30.26,30.16,30.06,10,10,9,23,12,29,0.00,1,,310
2013-3-27,62,48,35,36,31,25,87,51,25,30.34,30.27,30.23,10,10,8,13,7,16,0.00,0,,324
2013-3-28,69,53,37,39,33,25,100,52,18,30.33,30.27,30.20,10,9,8,10,4,,0.00,0,,5
2013-3-29,71,55,39,46,37,30,100,54,22,30.36,30.29,30.22,10,9,7,12,2,,0.00,0,,60
2013-3-30,77,60,44,50,45,39,100,60,31,30.29,30.23,30.14,10,9,7,10,2,,0.00,0,,200
2013-3-31,80,66,53,55,50,45,94,60,28,30.21,30.12,30.03,10,10,5,15,5,20,0.00,0,,197